Regional Weather Roundup
Issued by NWS

Home | Current Version | Previous Version | Text Only | Print | Product List | Glossary On
Versions: 1 2 3 4 5 6 7 8 9 10 11 12 13 14 15 16 17 18 19 20 21 22 23 24 25 26 27 28 29 30 31 32 33 34 35 36 37 38 39 40 41 42 43 44 45 46 47 48 49 50
242
ASHW40 PHFO 091043
RWRHI

WEATHER ROUNDUP FOR HAWAII
NATIONAL WEATHER SERVICE HONOLULU HI
1200 AM HST TUE FEB 09 2016

THIS IS AN AUTOMATED REPORT THAT HAS NOT BEEN QUALITY CONTROLLED.

NOTE..."FAIR" INDICATES FEW OR NO CLOUDS BELOW 12,000 FEET WITH NO
SIGNIFICANT WEATHER AND/OR OBSTRUCTIONS TO VISIBILITY.

* - THESE SITES REPORT LIMITED FIELDS

HIZ001>004-091100-
KAUAI-NIIHAU-

CITY           SKY/WX    TMP DP  RH WIND       PRES   REMARKS
LIHUE APT      CLEAR     60  52  74 W9        30.06R
PORT ALLEN*      N/A     61 N/A N/A NE9         N/A
POIPU*           N/A     57 N/A N/A VRB3        N/A
PRINCEVILLE*     N/A     55 N/A N/A S5          N/A
KOKOLE POINT*  NOT AVBL
MOLOAA DAIRY*    N/A     63  52  67 W3          N/A
WAIMEA HTS*      N/A     64  46  52 N6          N/A
PUU OPAE*        N/A     55  48  76 NE5         N/A
PUU LUA*       NOT AVBL
MAKAHA RIDGE*    N/A     57  52  82 N2          N/A
$$

HIZ005>011-091100-
OAHU-

CITY           SKY/WX    TMP DP  RH WIND       PRES   REMARKS
HONOLULU       PTCLDY    66  56  70 NW6       30.03F
KALAELOA       CLEAR     61  52  72 NE3       30.04F
KANEOHE MCB    CLEAR     62  55  77 CALM      30.00F
WHEELER FIELD  FAIR      56  53  90 NW2       30.02S
BELLOWS*         N/A    N/A N/A N/A W5          N/A
KAHUKU*          N/A    N/A N/A N/A VRB1        N/A
WHEELER*         N/A    N/A N/A N/A N3          N/A
WAIANAE HARBOR   N/A    N/A N/A N/A NE3         N/A
DILLINGHAM*      N/A     59  52  77 MISG        N/A
KAHUKU TRN*      N/A     61  54  77 S1          N/A
KAWAILOA*        N/A     61  52  72 E5          N/A
KII*             N/A     61  55  82 S3          N/A
MAKUA RANGE*     N/A     75  68  78 E6          N/A
OAHU FOREST NW   N/A     57  52  82 CALM        N/A
SCHOFIELD BRK*   N/A     54  52  94 MISG        N/A
SCHOFIELD S*   NOT AVBL
WAIANAE VLY*   NOT AVBL
KUAOKALA*        N/A     63  52  67 NE5         N/A
HONOULIUULI*   NOT AVBL
MOKUOLOE IS*   NOT AVBL
PALEHUA*         N/A     57  54  88 NW2         N/A
WAIAWA PHB*    NOT AVBL
$$

HIZ012>013-091100-
MOLOKAI-

CITY           SKY/WX    TMP DP  RH WIND       PRES   REMARKS
MOLOKAI AIRPT  CLEAR     61  51  70 N5        30.05R
KALAUPAPA      NOT AVBL
MAKAPULAPAI*     N/A     61  52  72 SE6         N/A
MOLOKAI 1*     NOT AVBL
PUU ALII*        N/A     45  45 100 CALM        N/A
$$

HIZ016-091100-
KAHOOLAWE-

CITY           SKY/WX    TMP DP  RH WIND       PRES   REMARKS
KAHOOLAWE*       N/A     59 N/A N/A E1          N/A
HAKIOAWA*        N/A     61  55  80 MISG      30.44F
HONOKANAIA*      N/A     64  53  66 VRB6      29.98R
KANELOA*         N/A     66  55  68 NE12G20   30.08R
KEALIALALO*      N/A     63  54  72 E7G14     30.01F
LUA MAKIKA*    NOT AVBL
$$

HIZ014>015-091100-
LANAI-

CITY           SKY/WX    TMP DP  RH WIND       PRES   REMARKS
LANAI CITY     FAIR      57  52  83 E6        30.07F
LANAI 1*       NOT AVBL
$$

HIZ017>028-091100-
MAUI-

CITY           SKY/WX    TMP DP  RH WIND       PRES   REMARKS
KAHULUI        CLEAR     57  53  86 S3        30.03S
KAPALUA-W MAUI NOT AVBL
HANA AIRPORT   PTCLDY    59  32  36 S3        30.06S
HANA*            N/A     64 N/A N/A S3          N/A
HALEAKALA SUMM   N/A     46   7  19 W10         N/A
MAALAEA BAY*     N/A     61 N/A N/A N6          N/A
HALEAKALA*     NOT AVBL
KAUPO GAP*       N/A     48  37  66 W3G12       N/A
KULA 1*          N/A     51  11  20 NE6         N/A
$$

HIZ023>026-091100-
BIG ISLAND OF HAWAII COAST AND LOWER SLOPES-

CITY           SKY/WX    TMP DP  RH WIND       PRES   REMARKS
KAILUA KONA    MOCLDY    71  61  70 SE6       30.01
HILO           CLOUDY    69  57  65 SW5       30.04F
HONOKAA*         N/A     61 N/A N/A VRB1        N/A
KAWAIHAE MWT*    N/A     72 N/A N/A E5          N/A
KAWAIHAE*        N/A     72 N/A N/A CALM      30.00R
SOUTH POINT*     N/A     63 N/A N/A NW8         N/A
UPOLU AIRPORT*   N/A    N/A N/A N/A SE9         N/A
KAMUELA*       CLOUDY    48  46  93 E8        30.11R
HAKALAU*         N/A    N/A N/A N/A W6          N/A
KALOKO-HONOKO*   N/A     72  59  64 CALM        N/A
PALI 2*          N/A     57  52  82 N7G14       N/A
KEALAKOMO*       N/A     70  55  60 N12G17      N/A
KAUPULEHU*       N/A     63  54  72 S7          N/A
KAPAPALA*        N/A     59  55  88 VRB3        N/A
LOWER KAHUKU*    N/A     54 N/A N/A VRB2        N/A
PUHE CS*         N/A     70  52  52 E6G12       N/A
PUHO CS*         N/A     71  60  67 E2          N/A
PTA KEAMUKU*     N/A     52  46  82 CALM        N/A
WAIKOLOA*        N/A     63  52  67 E13         N/A
$$

HIZ027>028-091100-
BIG ISLAND OF HAWAII INTERIOR AND SUMMMITS-

CITY           SKY/WX    TMP DP  RH WIND       PRES   REMARKS
BRADSHAW FIELD MOCLDY    42  15  34 SE5       30.26S
MK VISITOR CEN   N/A     48   1  14 NW10        N/A
MAUNA KEA*       N/A     37 -11  12 NW9         N/A
MAUNA LOA*       N/A     43 -20   6 MISG        N/A
MAUNA LOA 1*   NOT AVBL
PTA KIPUKA*      N/A    N/A N/A N/A E6          N/A
PTA RANGE 17*    N/A     46  39  76 E6          N/A
PTA WEST*        N/A     54  50  87 SE9         N/A
NENE CABIN*      N/A    N/A N/A N/A N3          N/A
AHUMOA*          N/A     48   3  15 NE9         N/A
PTA PORTABLE*  NOT AVBL
PUU MALI*        N/A     54   9  16 SW12        N/A
$$

HIC003-091100-
NORTHWEST ISLANDS-

CITY           SKY/WX    TMP DP  RH WIND       PRES   REMARKS
MIDWAY ISLAND  CLOUDY    64  55  72 N6        30.06S
MIDWAY NOS*      N/A     64 N/A N/A MISG      30.05R
FRENCH FRIGATE NOT AVBL
$$

PHZ110>124-180-091100-
BUOY REPORTS

STATION/POSITION TIME  TEMP    WIND        PRES    WAVE   SWELL
                       AIR SEA DIR/SP/G            HT/PER HT/DIR
                 (UTC) (F)     (DEG/KT/KT) (MB)    (FT/S) (FT/D)
BUOY 51001       1000   71 75  290/ 17/ 21 1016.5F
BUOY 51101       0950   72 75  290/ 16/ 19 1016.4F   9/13   8/330
BUOY 51100       NOT AVBL
BUOY 51002       0950   75 77   60/ 14/ 16 1015.5S   9/13   8/360
BUOY 51003       0950   73 78   70/ 12/ 16 1016.4R  10/12  10/340
BUOY 51004       0950   75 77   50/ 14/ 17 1015.8F  11/12  10/340
BARBERS PT BUOY  NOT AVBL
WAIMEA BAY BUOY  1004      77                N/A     9/13   7/340
KAILUA BAY BUOY  1011      77                N/A     8/12   7/350
LANAI BUOY       NOT AVBL
BARBERS PT 2     1003      77                N/A     6/12   5/320
PAUWELA MAUI     1007      76                N/A    11/13  10/340
HILO             NOT AVBL
KANEOHE BAY BUOY 1006      76                N/A     9/15   7/350
HANALEI KAUAI    1001      77                N/A    12/14  10/330
KAHULUI HARBOR   NOT AVBL
HONOLULU HARBOR  1000   68 77   60/  2/  3 1017.3F
KILO NALU        NOT AVBL
HILO HARBOR      1000   69 75  210/  5/  7 1016.7F
MOKUOLOE         0900   66 77  180/  4/  6 1016.7F
NAWILIWILI       1000   59 78  260/  5/  7 1017.5S
WHOTS BUOY       NOT AVBL
BUOY 51028       NOT AVBL
$$

......................KEY........................................
  SKY/WX - SKY CONDITIONS/PRESENT WEATHER
  TMP    - TEMPERATURE IN FAHRENHEIT
  DWPT   - DEWPOINT IN FAHRENHEIT
  RH     - RELATIVE HUMIDITY IN PERCENT
  WIND   - DIRECTION AND SPEED /MPH FOR ISLANDS...KTS FOR BUOYS/
  PRES   - MEAN SEA LEVEL PRESSURE IN INCHES OF HG
  VSB    - VISIBILITY IN MILES
  HX     - HEAT INDEX
  WCI    - WIND CHILL INDEX
  VRB    - VARIABLE WIND DIRECTION
  N/A    - NOT AVAILABLE




USA.gov is the U.S. government's official web portal to all federal, state and local government web resources and services.